Location: San Antonio
(29.4240°N, 98.4930°W)
Time: 14:37:23
(UTC-05:00)

HTV-X1 - Visible Passes

Search period start: 18 May 2026 00:00
Search period end: 28 May 2026 00:00
Orbit: 372 x 382 km, 51.6° (Epoch: 18 May)

Date Brightness Start Highest point End Pass type
(mag) Time Alt. Az. Time Alt. Az. Time Alt. Az.
23 May ? 22:34:33 10° N 22:35:02 11° NNE 22:35:02 11° NNE visible
24 May ? 23:07:57 10° NW 23:08:19 13° NNW 23:08:19 13° NNW visible
25 May ? 22:07:23 10° N 22:09:33 20° NNE 22:09:33 20° NNE visible
26 May ? 22:41:29 10° NW 22:42:54 24° NW 22:42:54 24° NW visible
27 May ? 21:40:32 10° NNW 21:43:23 34° NE 21:44:13 28° ENE visible
